www.pogodaiklimat.ru

Погода и климат >> Архив погоды >> Россия >> Хабаровский край >> Арка


ПОГОДА в Арке

  • Прогноз погоды в Арке
  • Монитор погоды в Арке

АРХИВ ПОГОДЫ в Арке

Время (UTC), дата Ветер
(напр.,м/с)
 
Видим.   Явления Облачность Т
(С)
Тd
(С)
f
(%)
Тe
(С)
Тes
(С)
Комфортность P
(гПа)
Po
(гПа)
Тmin
(С)
Tmax
(С)
R
(мм)
R24
(мм)
S
(см)
15 9.07 Ю 2 50 км 8/3 300 м
[St Ci fib]
+8.8 +7.9 94 +7 +7 1015.2 991.2
18 9.07 ЮЗ 1 50 км 10/10 300 м
[St]
+8.2 +7.5 95 +7 +7 1015.8 991.8
21 9.07 З 1 50 км 10/10 300 м
[St]
+8.2 +7.0 92 +7 +7 1015.6 991.6 +8.1
00 10.07 ЮВ 2 50 км 8/3 600 м
[St Ci fib]
+11.9 +8.3 79 +11 +17 1014.5 990.8
03 10.07 ЮВ 3 50 км 4/0
[Ci fib]
+16.5 +9.7 64 +16 +27 1012.5 989.2
06 10.07 Ю 4 50 км 3/0
[Ci fib]
+18.6 +10.2 58 +19 +24 1010.9 987.9
09 10.07 Ю 3 50 км 4/0
[Ci fib]
+17.3 +10.1 63 +17 +18 1010.8 987.7 +19.0
12 10.07 ЮВ 2 50 км 3/0
[Ci fib]
+11.1 +8.7 85 +10 +10 1012.6 988.9
15 10.07 ЮВ 1 50 км 10/10 300 м
[St]
+9.3 +8.5 95 +9 +9 1013.2 989.3
18 10.07 З 1 50 км 10/10 300 м
[St]
+8.6 +8.0 96 +8 +8 1013.2 989.3
21 10.07 СЗ 1 50 км 10/10 300 м
[St]
+9.2 +8.3 94 +8 +8 1013.2 989.3 +8.1
00 11.07 В 1 50 км 8/0
[Ci fib]
+15.7 +10.0 69 +16 +27 1011.4 988.1
03 11.07 ЮВ 2 50 км 10/0
[Cs]
+22.5 +10.5 47 +24 +35 комфорт 1009.3 986.6
06 11.07 Ю 2 50 км 8/0
[Ci fib]
+24.7 +7.9 34 +25 +32 комфорт 1008.0 985.4
09 11.07 ЮВ 2 50 км 8/0
[Ci fib]
+22.4 +11.3 49 +25 +26 комфорт 1007.8 985.1 +24.8
12 11.07 Ю 1 50 км 6/0
[Ci fib]
+15.8 +9.8 67 +17 +17 1009.4 986.2
15 11.07 штиль 0 50 км 8/0
[Ac trans Ci fib]
+8.9 +8.3 96 +8 +8 1010.5 986.7
18 11.07 штиль 0 50 км 8/0
[Ac trans Ci fib]
+6.2 +5.7 97 +5 +5 1010.7 986.6
21 11.07 штиль 0 50 км 8/0
[Ac trans Ci fib]
+14.6 +10.1 74 +14 +17 1010.1 986.7 +6.2
00 12.07 СЗ 1 50 км 9/0
[Ac trans Ci fib]
+20.3 +11.3 56 +23 +31 комфорт 1008.8 986.0
03 12.07 ЮВ 2 50 км 8/3 1000 м
[Cu hum Ac trans Ci fib]
+26.2 +9.3 34 +27 +33 жарко 1007.3 984.9
06 12.07 Ю 3 50 км 9/3 1000 м
[Cu hum Ac trans Ci fib]
+27.1 +9.4 33 +27 +30 жарко 1006.1 983.8
09 12.07 Ю 2 50 км 8/3 1000 м
[Sc Ac trans Ci fib]
+22.6 +10.2 45 +24 +25 комфорт 1007.2 984.5 +28.2
12 12.07 СВ 1 50 км 9/4 1000 м
[Sc Ac trans Ci fib]
+16.9 +10.1 64 +18 +18 1009.2 986.1
15 12.07 В 1 50 км 8/5 1000 м
[Sc Ci fib]
+10.7 +9.2 90 +10 +10 1011.0 987.3
18 12.07 Ю 1 50 км 6/3 1000 м
[Sc Ci fib]
+8.4 +7.8 96 +7 +7 1011.9 988.0
21 12.07 штиль 0 50 км 6/3 1000 м
[Sc Ac trans Ci fib]
+14.5 +9.2 70 +14 +17 1011.6 988.2 +7.9
00 13.07 Ю 1 50 км 8/3 1000 м
[Sc Ac trans Ci fib]
+22.4 +13.3 56 +25 +31 комфорт 1010.0 987.3
03 13.07 ЮВ 1 50 км 8/3 1000 м
[Sc Ac trans Ci fib]
+25.2 +13.4 48 +27 +34 жарко 1008.6 986.1
06 13.07 Ю 3 50 км 4/3 1000 м
[Sc Ci fib]
+27.2 +7.7 29 +27 +31 жарко 1007.2 984.9
09 13.07 ЮВ 4
{10}
50 км 4/3 1000 м
[Sc Ac trans Ci fib]
+22.7 +11.1 48 +25 +26 комфорт 1007.4 984.8 +27.7
12 13.07 ЮВ 3 50 км 6/1 1000 м
[Sc diur, vesp Ac trans Ci fib]
+16.4 +13.2 81 +16 +16 1009.7 986.5
15 13.07 ЮВ 2 50 км 8/3 300 м
[St Ci fib]
+13.0 +12.3 96 +12 +12 1010.9 987.4
18 13.07 ЮВ 1 50 км 10/10 300 м
[St]
+12.6 +12.0 96 +13 +13 1011.8 988.3
21 13.07 ЮВ 1 50 км 10/10 300 м
[St]
+12.5 +11.6 94 +12 +12 1012.6 989.0 +12.4
00 14.07 Ю 1 50 км 10/10 300 м
[St]
+14.8 +12.3 85 +15 +15 1012.4 989.0
03 14.07 ЮВ 4 50 км 9/3 1000 м
[Sc Ac trans Ci fib]
+17.1 +13.2 78 +17 +20 1011.0 987.9
06 14.07 Ю 3 50 км 9/0
[Ci fib]
+20.1 +14.0 68 +23 +28 комфорт 1009.6 986.7
09 14.07 Ю 3 50 км 9/0
[Ci fib]
+17.9 +11.8 67 +18 +19 1009.5 986.4 +20.6
12 14.07 ЮВ 3 50 км 9/3 300 м
[St Ci fib]
+12.0 +10.6 91 +10 +10 1011.2 987.7
15 14.07 Ю 1 50 км 10/10 300 м
[St]
+10.4 +9.8 96 +10 +10 1012.1 988.4
18 14.07 Ю 1 50 км 10/10 300 м
[St]
+10.0 +9.4 96 +9 +9 1012.0 988.3
21 14.07 штиль 0 50 км {морось} 10/10 300 м
[St]
+10.4 +9.2 92 +10 +10 1011.9 988.2 +9.9 0.4
00 15.07 Ю 1 50 км {морось} 10/10 300 м
[St]
+12.5 +9.5 82 +13 +13 1011.5 988.0
03 15.07 ЮВ 2 50 км 10/10 300 м
[St]
+15.1 +11.2 78 +15 +15 1009.6 986.3
06 15.07 ЮВ 4 50 км 3/3 1000 м
[Cu med, cong Ci fib]
+17.1 +11.9 71 +17 +20 1008.1 985.0
09 15.07 Ю 3 50 км 8/4 1000 м
[Sc Ci fib]
+14.9 +11.7 81 +14 +15 1007.9 984.7 +17.3
12 15.07 ЮВ 2 50 км 10/10 300 м
[St]
+12.5 +10.8 89 +12 +12 1008.7 985.2
15 15.07 Ю 1 50 км 10/10 300 м
[St]
+11.3 +10.3 94 +11 +11 1008.8 985.3
18 15.07 штиль 0 50 км 10/10 300 м
[St]
+10.8 +10.3 97 +10 +10 1008.3 984.7
21 15.07 ЮЗ 1 50 км 10/10 300 м
[St]
+11.8 +10.2 90 +12 +12 1007.9 984.4 +10.8
00 16.07 В 1 50 км 8/3 300 м
[St Ac trans Ci fib]
+16.4 +10.2 67 +17 +23 1007.9 983.8
03 16.07 Ю 3 50 км 8/3 1000 м
[Sc Ac trans Ci fib]
+19.2 +13.0 67 +21 +26 комфорт 1005.3 982.5
06 16.07 ЮВ 3 50 км 9/4 1000 м
[Cb cap Ac trans Ci fib]
+20.0 +13.6 67 +22 +25 комфорт 1003.8 981.0
09 16.07 Ю 3
{10}
50 км 8/3 1000 м
[Cb cap Ac trans Ci fib]
+17.3 +12.9 75 +17 +18 1004.1 981.1 +20.8
12 16.07 ЮВ 3 50 км 10/10 1000 м
[Cb cap]
+13.9 +11.7 87 +13 +13 1005.7 982.4

 

Местоположение метеостанции Арка (Хабаровский край, Россия): широта 60.08 долгота 142.30 высота над уровнем моря 198 м.

В архиве по умолчанию представлена погода в Арке за последнюю неделю. Архивные данные за месяц целиком и за предыдущие месяцы, начиная с января 2011 года, Вы можете получить, выбрав интересующий диапазон дат из раскрывающегося списка и нажав кнопку "Ввод!".


*Определитесь, кто Вы:
робот инопланетянин человек

Внимание! Время в таблицах - всемирное. Для получения местного времени необходимо прибавить поправку, которая равна 10 ч.

Смотрите также архив погоды в соседних городах и на ближайших метеорологических станциях:

Погода в Уеге (Хабаровский край, Россия) (74 км)
Погода в Охотске (Хабаровский край, Россия) (95 км)
Погода в Улье (Хабаровский край, Россия) (145 км)
Погода в Югоренке (Якутия, Россия) (264 км)
Погода в Колымской (Магаданская область, Россия) (347 км)
Погода в Талоне (Магаданская область, Россия) (353 км)
Погода в Оймяконе (Якутия, Россия) (355 км)
Погода в Агаякане (Якутия, Россия) (363 км)
Погода в Восточной (Якутия, Россия) (378 км)
Погода на Острове Спафарьева (Магаданская область, Россия) (391 км)

Пояснения к столбцам:

Ветер - указаны скорость ветра в м/с - средняя за 10 мин, порывы в срок и между сроками (в фигурных скобках) и направление, откуда дует ветер: С - северный, СВ - северо-восточный, В - восточный, ЮВ - юго-восточный, Ю - южный, ЮЗ - юго-западный, З - западный, СЗ - северо-западный.
Видимость - горизонтальная дальность видимости в метрах или километрах. При видимости от 1 до 10 км при отсутствии осадков обычно наблюдается дымка, при ухудшении видимости до 1 км и менее - туман. В сухую погоду видимость может ухудшаться дымом, пылью или мглою.
Явления - указаны атмосферные явления, наблюдавшиеся в срок или в последний час перед сроком; фигурными скобками обозначены явления, наблюдавшиеся между сроками (за 1-3 часа до срока); квадратными скобками обозначены град или гололедные отложения с указанием их диаметра в мм.
Облачность - указаны через наклонную черту общая и нижняя облачность в баллах и высота нижней границы облаков в метрах; квадратными скобками обозначены формы облаков: Ci - перистые, Cs - перисто-слоистые, Cc - перисто-кучевые, Ac - высококучевые, As - высокослоистые, Sc - слоисто-кучевые, Ns - слоисто-дождевые, Cu - кучевые, Cb - кучево-дождевые. Подробнее классификацию облаков см. в Атласе облаков (PDF).
T - Температура воздуха - температура, измеренная на высоте 2 м над землей.
Td - Температура точки росы - температура, при понижении до которой содержащийся в воздухе водяной пар достигнет насыщения.
f - Относительная влажность воздуха - влажноcть воздуха, измеренная на высоте 2 м над землей.
Te - Эффективная температура - температура, которую ощущает одетый по сезону человек в тени. Характеристика душности погоды. При расчете учитывается влияние влажности воздуха и скорости ветра на теплоощущения человека.
Tes - Эффективная температура на солнце - температура, которую ощущает человек, с поправкой на солнечный нагрев. Характеристика знойности погоды. Зависит от высоты солнца над горизонтом, облачности и скорости ветра. Ночью, в пасмурную погоду, а также при ветре 12 м/с и более поправка равна нулю.
P - Атмосферное давление - приведенное к уровню моря атмосферное давление.
Po - Атмосферное давление - измеренное на уровне метеостанции атмосферное давление.
Tmin - Минимальная температура - минимум температуры воздуха на высоте 2 м над землей.
Tmax - Максимальная температура - максимум температуры воздуха на высоте 2 м над землей.
R - Количество осадков - Количество выпавших осадков за период времени, мм. При наведении курсора мыши на число - период времени, за который выпало указанное количество осадков.
R24 - Количество осадков - Количество выпавших осадков за 24 часа, мм.
S - Снежный покров - Высота снежного покрова, см. При наведении курсора мыши на число - состояние снежного покрова и степень покрытия местности в баллах.